Aduana, Mexico

2:58 PM on March 25, 2017 (GMT +0000)
Aduana

Weather History for 76590 - September, 2013

Change the Weather History Date:

Thursday, September 19, 2013

  Actual Average Record
Temperature  
Mean Temperature 84 °F -  
Max Temperature 87 °F 87 °F - ()
Min Temperature 80 °F 72 °F - ()
Cooling Degree Days 18    
Growing Degree Days 34 (Base 50)    
Moisture  
Dew Point 78 °F    
Average Humidity 84    
Maximum Humidity 89    
Minimum Humidity 74    
Precipitation  
Precipitation 0.00 in - - ()
Sea Level Pressure  
Sea Level Pressure 29.88 in    
Wind  
Wind Speed 11 mph ()    
Max Wind Speed 20 mph    
Max Gust Speed -    
Visibility 6.8 miles    
Events      
T = Trace of Precipitation, MM = Missing Value Source: Averaged Metar Reports

Daily Weather History Graph

Daily Weather History Graph

Search for Another Location

Airport or City:

Trip Planner

Search our weather history database for the weather conditions in past years. The results will help you decide how hot, cold, wet, or windy it might be!

Date:

Astronomy

Sep. 19, 2013 Rise Set
Actual Time 11:35 AM UTC 11:46 PM UTC
Civil Twilight 11:13 AM UTC 12:08 AM UTC
Nautical Twilight 10:47 AM UTC 12:34 AM UTC
Astronomical Twilight 10:21 AM UTC 1:00 AM UTC
Moon 11:54 PM UTC (9/19) 11:37 AM UTC (9/19)
Length of Visible Light 12h 55m
Length of Day
12h 10m
Full, 100% of the Moon is Illuminated
Sep 19
Full
Sep 27
Last Quarter
Oct 5
New
Oct 11
First Quarter
Oct 18
Full

Hourly Weather History & Observations

Time (GMT) Temp. Heat Index Dew Point Humidity Pressure Visibility Wind Dir Wind Speed Gust Speed Precip Events Conditions
12:41 AM 80.6 °F 86.2 °F 75.2 °F 84% 29.84 in 7.0 mi ESE 10.4 mph - N/A   Overcast
1:40 AM 80.6 °F 87.1 °F 77.0 °F 89% 29.85 in 7.0 mi ESE 9.2 mph - N/A   Overcast
2:48 AM 80.6 °F 87.1 °F 77.0 °F 89% 29.85 in 7.0 mi ESE 10.4 mph - N/A   Overcast
3:47 AM 80.6 °F 87.1 °F 77.0 °F 89% 29.90 in 7.0 mi East 13.8 mph - N/A   Overcast
4:46 AM 80.6 °F 87.1 °F 77.0 °F 89% 29.90 in 7.0 mi SE 10.4 mph - N/A   Overcast
5:45 AM 80.6 °F 87.1 °F 77.0 °F 89% 29.87 in 7.0 mi East 11.5 mph - N/A   Overcast
6:44 AM 80.6 °F 87.1 °F 77.0 °F 89% 29.88 in 7.0 mi ESE 15.0 mph - N/A   Overcast
7:43 AM 80.6 °F 87.1 °F 77.0 °F 89% 29.86 in 7.0 mi ESE 9.2 mph - N/A   Overcast
8:46 AM 80.6 °F 87.1 °F 77.0 °F 89% 29.83 in 7.0 mi ESE 11.5 mph - N/A   Overcast
9:45 AM 80.6 °F 87.1 °F 77.0 °F 89% 29.86 in 7.0 mi ESE 11.5 mph - N/A   Overcast
10:44 AM 80.6 °F 87.1 °F 77.0 °F 89% 29.87 in 7.0 mi East 16.1 mph - N/A   Overcast
11:43 AM 82.4 °F 90.9 °F 77.0 °F 84% 29.86 in 7.0 mi SE 15.0 mph - N/A   Mostly Cloudy
12:53 PM 82.4 °F 90.9 °F 77.0 °F 84% 29.90 in 7.0 mi ESE 10.4 mph - N/A   Mostly Cloudy
1:43 PM 84.2 °F 94.1 °F 77.0 °F 79% 29.91 in 7.0 mi East 12.7 mph - N/A   Mostly Cloudy
2:45 PM 86.0 °F 99.3 °F 78.8 °F 79% 29.93 in 7.0 mi ESE 19.6 mph - N/A   Mostly Cloudy
3:43 PM 86.0 °F 99.3 °F 78.8 °F 79% 29.93 in 7.0 mi SE 16.1 mph - N/A   Mostly Cloudy
4:41 PM 86.0 °F 96.9 °F 77.0 °F 74% 29.94 in 7.0 mi SE 17.3 mph - N/A   Mostly Cloudy
5:45 PM 87.8 °F 102.5 °F 78.8 °F 75% 29.92 in 7.0 mi ESE 17.3 mph - N/A   Mostly Cloudy
6:42 PM 86.0 °F 99.3 °F 78.8 °F 79% 29.90 in 7.0 mi ESE 13.8 mph - N/A   Mostly Cloudy
7:43 PM 86.0 °F 99.3 °F 78.8 °F 79% 29.89 in 7.0 mi ESE 16.1 mph - N/A   Mostly Cloudy
8:42 PM 86.0 °F 99.3 °F 78.8 °F 79% 29.88 in 6.0 mi ESE 16.1 mph - N/A   Mostly Cloudy
9:40 PM 84.2 °F 96.1 °F 78.8 °F 84% 29.87 in 5.0 mi ESE 13.8 mph - N/A   Mostly Cloudy
10:43 PM 84.2 °F 96.1 °F 78.8 °F 84% 29.88 in 6.0 mi ESE 6.9 mph - N/A   Mostly Cloudy
11:42 PM 82.4 °F 92.4 °F 78.8 °F 89% 29.88 in 7.0 mi ESE 11.5 mph - N/A   Mostly Cloudy